Terug naar catalogus

STARLINK-3107

ActiefCommunicatieVLEO
NORAD 49171·PAYLOAD·🇺🇸 United States

Gelanceerd Sep 14, 2021 vanaf Vandenberg Space Force Base

Loading…

Volgende Passages (komende 24 uur)

TLE

VersSource: CelesTrak SupGP

Epoch: Sep 14, 2026, 20:27 UTC

1 49171C 21082AT  26257.85256944 -.00040422  00000+0 -20359-2 0  2571
2 49171  69.9949 158.9176 0006700 275.0247 151.8663 15.17084976    16

Volg STARLINK-3107 in realtime met AllMySat

Download on the App Store